Time,TemperatureF,DewpointF,PressureIn,WindDirection,WindDirectionDegrees,WindSpeedMPH,WindSpeedGustMPH,Humidity,HourlyPrecipIn,Conditions,Clouds,dailyrainin,SoftwareType,DateUTC
2013-04-16 00:02:00,32.0,31.0,-100.00,NW,320,13.0,18.0,99,-99.99,,,-99.99,,2013-04-16 05:02:00,
2013-04-16 00:12:00,32.0,31.0,-100.00,NW,320,13.0,18.0,99,-99.99,,,-99.99,,2013-04-16 05:12:00,
2013-04-16 00:22:00,32.0,31.0,-100.00,NW,320,13.0,18.0,99,-99.99,,,-99.99,,2013-04-16 05:22:00,
2013-04-16 00:32:00,32.0,31.0,-100.00,NW,305,12.0,16.0,99,-99.99,,,-99.99,,2013-04-16 05:32:00,
2013-04-16 00:42:00,32.0,31.0,-100.00,NW,305,12.0,16.0,99,-99.99,,,-99.99,,2013-04-16 05:42:00,
2013-04-16 00:52:00,32.0,31.0,-100.00,NW,305,12.0,16.0,99,-99.99,,,-99.99,,2013-04-16 05:52:00,
2013-04-16 01:02:00,31.0,31.0,-100.00,WNW,300,11.0,16.0,99,-99.99,,,-99.99,,2013-04-16 06:02:00,
2013-04-16 01:12:00,31.0,31.0,-100.00,WNW,300,11.0,16.0,99,-99.99,,,-99.99,,2013-04-16 06:12:00,
2013-04-16 01:22:00,31.0,31.0,-100.00,WNW,300,11.0,16.0,99,-99.99,,,-99.99,,2013-04-16 06:22:00,
2013-04-16 01:32:00,31.0,31.0,-100.00,WNW,300,12.0,17.0,99,-99.99,,,-99.99,,2013-04-16 06:32:00,
2013-04-16 01:42:00,31.0,31.0,-100.00,WNW,300,12.0,17.0,99,-99.99,,,-99.99,,2013-04-16 06:42:00,
2013-04-16 01:52:00,31.0,31.0,-100.00,WNW,300,12.0,17.0,99,-99.99,,,-99.99,,2013-04-16 06:52:00,
2013-04-16 02:02:00,30.0,30.0,-100.00,WNW,295,14.0,18.0,99,-99.99,,,-99.99,,2013-04-16 07:02:00,
2013-04-16 02:12:00,30.0,30.0,-100.00,WNW,295,14.0,18.0,99,-99.99,,,-99.99,,2013-04-16 07:12:00,
2013-04-16 02:22:00,30.0,30.0,-100.00,WNW,295,14.0,18.0,99,-99.99,,,-99.99,,2013-04-16 07:22:00,
2013-04-16 02:32:00,30.0,30.0,-100.00,WNW,295,14.0,18.0,99,-99.99,,,-99.99,,2013-04-16 07:32:00,
2013-04-16 03:02:00,30.0,30.0,-100.00,WNW,295,12.0,18.0,99,-99.99,,,-99.99,,2013-04-16 08:02:00,
2013-04-16 03:12:00,30.0,30.0,-100.00,WNW,295,12.0,18.0,99,-99.99,,,-99.99,,2013-04-16 08:12:00,
2013-04-16 03:22:00,30.0,30.0,-100.00,WNW,295,12.0,18.0,99,-99.99,,,-99.99,,2013-04-16 08:22:00,
2013-04-16 03:32:00,31.0,30.0,-100.00,NW,305,11.0,15.0,99,-99.99,,,-99.99,,2013-04-16 08:32:00,
2013-04-16 03:42:00,31.0,30.0,-100.00,NW,305,11.0,15.0,99,-99.99,,,-99.99,,2013-04-16 08:42:00,
2013-04-16 03:52:00,31.0,30.0,-100.00,NW,305,11.0,15.0,99,-99.99,,,-99.99,,2013-04-16 08:52:00,
2013-04-16 04:02:00,31.0,30.0,-100.00,NW,325,13.0,16.0,99,-99.99,,,-99.99,,2013-04-16 09:02:00,
2013-04-16 04:12:00,31.0,30.0,-100.00,NW,325,13.0,16.0,99,-99.99,,,-99.99,,2013-04-16 09:12:00,
2013-04-16 04:22:00,31.0,30.0,-100.00,NW,325,13.0,16.0,99,-99.99,,,-99.99,,2013-04-16 09:22:00,
2013-04-16 04:33:00,31.0,30.0,-100.00,NW,325,13.0,16.0,99,-99.99,,,-99.99,,2013-04-16 09:33:00,
2013-04-16 05:03:00,30.0,30.0,-100.00,NNW,330,10.0,14.0,99,-99.99,,,-99.99,,2013-04-16 10:03:00,
2013-04-16 05:13:00,30.0,30.0,-100.00,NNW,330,10.0,14.0,99,-99.99,,,-99.99,,2013-04-16 10:13:00,
2013-04-16 05:23:00,30.0,30.0,-100.00,NNW,330,10.0,14.0,99,-99.99,,,-99.99,,2013-04-16 10:23:00,
2013-04-16 05:33:00,30.0,30.0,-100.00,NW,325,9.0,12.0,99,-99.99,,,-99.99,,2013-04-16 10:33:00,
2013-04-16 05:42:00,30.0,30.0,-100.00,NW,325,9.0,12.0,99,-99.99,,,-99.99,,2013-04-16 10:42:00,
2013-04-16 05:53:00,30.0,30.0,-100.00,NW,325,9.0,12.0,99,-99.99,,,-99.99,,2013-04-16 10:53:00,
2013-04-16 06:02:00,30.0,30.0,-100.00,NW,325,9.0,12.0,99,-99.99,,,-99.99,,2013-04-16 11:02:00,
2013-04-16 07:02:00,30.0,30.0,-100.00,NW,310,6.0,9.0,99,-99.99,,,-99.99,,2013-04-16 12:02:00,
2013-04-16 07:12:00,30.0,30.0,-100.00,NW,310,6.0,9.0,99,-99.99,,,-99.99,,2013-04-16 12:12:00,
2013-04-16 07:22:00,30.0,30.0,-100.00,NW,310,6.0,9.0,99,-99.99,,,-99.99,,2013-04-16 12:22:00,
2013-04-16 07:32:00,30.0,30.0,-100.00,NW,320,6.0,9.0,99,-99.99,,,-99.99,,2013-04-16 12:32:00,
2013-04-16 07:42:00,30.0,30.0,-100.00,NW,320,6.0,9.0,99,-99.99,,,-99.99,,2013-04-16 12:42:00,
2013-04-16 07:52:00,30.0,30.0,-100.00,NW,320,6.0,9.0,99,-99.99,,,-99.99,,2013-04-16 12:52:00,
2013-04-16 08:02:00,30.0,30.0,-100.00,NW,320,7.0,10.0,99,-99.99,,,-99.99,,2013-04-16 13:02:00,
2013-04-16 08:12:00,30.0,30.0,-100.00,NW,320,7.0,10.0,99,-99.99,,,-99.99,,2013-04-16 13:12:00,
2013-04-16 08:22:00,30.0,30.0,-100.00,NW,320,7.0,10.0,99,-99.99,,,-99.99,,2013-04-16 13:22:00,
2013-04-16 08:32:00,30.0,30.0,-100.00,NW,310,9.0,11.0,99,-99.99,,,-99.99,,2013-04-16 13:32:00,
2013-04-16 08:42:00,30.0,30.0,-100.00,NW,310,9.0,11.0,99,-99.99,,,-99.99,,2013-04-16 13:42:00,
2013-04-16 08:52:00,30.0,30.0,-100.00,NW,310,9.0,11.0,99,-99.99,,,-99.99,,2013-04-16 13:52:00,
2013-04-16 09:02:00,31.0,30.0,-100.00,NW,305,7.0,10.0,99,-99.99,,,-99.99,,2013-04-16 14:02:00,
2013-04-16 09:12:00,31.0,30.0,-100.00,NW,305,7.0,10.0,99,-99.99,,,-99.99,,2013-04-16 14:12:00,
2013-04-16 09:22:00,31.0,30.0,-100.00,NW,305,7.0,10.0,99,-99.99,,,-99.99,,2013-04-16 14:22:00,
2013-04-16 09:32:00,31.0,31.0,-100.00,NW,320,10.0,12.0,99,-99.99,,,-99.99,,2013-04-16 14:32:00,
2013-04-16 09:42:00,31.0,31.0,-100.00,NW,320,10.0,12.0,99,-99.99,,,-99.99,,2013-04-16 14:42:00,
2013-04-16 09:52:00,31.0,31.0,-100.00,NW,320,10.0,12.0,99,-99.99,,,-99.99,,2013-04-16 14:52:00,
2013-04-16 10:02:00,31.0,31.0,-100.00,NNW,345,7.0,13.0,99,-99.99,,,-99.99,,2013-04-16 15:02:00,
2013-04-16 10:12:00,31.0,31.0,-100.00,NNW,345,7.0,13.0,99,-99.99,,,-99.99,,2013-04-16 15:12:00,
2013-04-16 10:22:00,31.0,31.0,-100.00,NNW,345,7.0,13.0,99,-99.99,,,-99.99,,2013-04-16 15:22:00,
2013-04-16 10:33:00,31.0,31.0,-100.00,North,350,9.0,13.0,99,-99.99,,,-99.99,,2013-04-16 15:33:00,
2013-04-16 10:43:00,31.0,31.0,-100.00,North,350,9.0,13.0,99,-99.99,,,-99.99,,2013-04-16 15:43:00,
2013-04-16 10:53:00,31.0,31.0,-100.00,North,350,9.0,13.0,99,-99.99,,,-99.99,,2013-04-16 15:53:00,
2013-04-16 11:03:00,31.0,31.0,-100.00,North,350,9.0,13.0,99,-99.99,,,-99.99,,2013-04-16 16:03:00,
2013-04-16 12:02:00,32.0,31.0,-100.00,North,0,11.0,14.0,94,-99.99,,,-99.99,,2013-04-16 17:02:00,
2013-04-16 12:12:00,32.0,31.0,-100.00,North,0,11.0,14.0,94,-99.99,,,-99.99,,2013-04-16 17:12:00,
2013-04-16 12:22:00,32.0,31.0,-100.00,North,0,11.0,14.0,94,-99.99,,,-99.99,,2013-04-16 17:22:00,
2013-04-16 12:32:00,33.0,31.0,-100.00,North,355,10.0,13.0,93,-99.99,,,-99.99,,2013-04-16 17:32:00,
2013-04-16 12:43:00,33.0,31.0,-100.00,North,355,10.0,13.0,93,-99.99,,,-99.99,,2013-04-16 17:43:00,
2013-04-16 12:53:00,33.0,31.0,-100.00,North,355,10.0,13.0,93,-99.99,,,-99.99,,2013-04-16 17:53:00,
2013-04-16 13:02:00,32.0,31.0,-100.00,NNW,340,9.0,17.0,96,-99.99,,,-99.99,,2013-04-16 18:02:00,
2013-04-16 13:12:00,32.0,31.0,-100.00,NNW,340,9.0,17.0,96,-99.99,,,-99.99,,2013-04-16 18:12:00,
2013-04-16 13:22:00,32.0,31.0,-100.00,NNW,340,9.0,17.0,96,-99.99,,,-99.99,,2013-04-16 18:22:00,
2013-04-16 13:32:00,33.0,31.0,-100.00,NNW,335,12.0,17.0,94,-99.99,,,-99.99,,2013-04-16 18:32:00,
2013-04-16 13:43:00,33.0,31.0,-100.00,NNW,335,12.0,17.0,94,-99.99,,,-99.99,,2013-04-16 18:43:00,
2013-04-16 13:52:00,33.0,31.0,-100.00,NNW,335,12.0,17.0,94,-99.99,,,-99.99,,2013-04-16 18:52:00,
2013-04-16 14:02:00,33.0,30.0,-100.00,North,350,11.0,17.0,90,-99.99,,,-99.99,,2013-04-16 19:02:00,
2013-04-16 14:12:00,33.0,30.0,-100.00,North,350,11.0,17.0,90,-99.99,,,-99.99,,2013-04-16 19:12:00,
2013-04-16 14:22:00,33.0,30.0,-100.00,North,350,11.0,17.0,90,-99.99,,,-99.99,,2013-04-16 19:22:00,
2013-04-16 14:32:00,33.0,29.0,-100.00,NNW,340,14.0,17.0,86,-99.99,,,-99.99,,2013-04-16 19:32:00,
2013-04-16 14:42:00,33.0,29.0,-100.00,NNW,340,14.0,17.0,86,-99.99,,,-99.99,,2013-04-16 19:42:00,
2013-04-16 14:52:00,33.0,29.0,-100.00,NNW,340,14.0,17.0,86,-99.99,,,-99.99,,2013-04-16 19:52:00,
2013-04-16 15:02:00,33.0,29.0,-100.00,NNW,335,12.0,16.0,85,-99.99,,,-99.99,,2013-04-16 20:02:00,
2013-04-16 15:12:00,33.0,29.0,-100.00,NNW,335,12.0,16.0,85,-99.99,,,-99.99,,2013-04-16 20:12:00,
2013-04-16 15:22:00,33.0,29.0,-100.00,NNW,335,12.0,16.0,85,-99.99,,,-99.99,,2013-04-16 20:22:00,
2013-04-16 15:32:00,33.0,29.0,-100.00,NNW,340,12.0,16.0,85,-99.99,,,-99.99,,2013-04-16 20:32:00,
2013-04-16 15:42:00,33.0,29.0,-100.00,NNW,340,12.0,16.0,85,-99.99,,,-99.99,,2013-04-16 20:42:00,
2013-04-16 15:52:00,33.0,29.0,-100.00,NNW,340,12.0,16.0,85,-99.99,,,-99.99,,2013-04-16 20:52:00,
2013-04-16 16:02:00,33.0,29.0,-100.00,NNW,335,11.0,15.0,84,-99.99,,,-99.99,,2013-04-16 21:02:00,
2013-04-16 16:12:00,33.0,29.0,-100.00,NNW,335,11.0,15.0,84,-99.99,,,-99.99,,2013-04-16 21:12:00,
2013-04-16 16:22:00,33.0,29.0,-100.00,NNW,335,11.0,15.0,84,-99.99,,,-99.99,,2013-04-16 21:22:00,
2013-04-16 16:32:00,33.0,28.0,-100.00,NNW,340,11.0,15.0,81,-99.99,,,-99.99,,2013-04-16 21:32:00,
2013-04-16 16:43:00,33.0,28.0,-100.00,NNW,340,11.0,15.0,81,-99.99,,,-99.99,,2013-04-16 21:43:00,
2013-04-16 16:53:00,33.0,28.0,-100.00,NNW,340,11.0,15.0,81,-99.99,,,-99.99,,2013-04-16 21:53:00,
2013-04-16 17:02:00,33.0,28.0,-100.00,North,350,9.0,14.0,81,-99.99,,,-99.99,,2013-04-16 22:02:00,
2013-04-16 17:13:00,33.0,28.0,-100.00,North,350,9.0,14.0,81,-99.99,,,-99.99,,2013-04-16 22:13:00,
2013-04-16 17:22:00,33.0,28.0,-100.00,North,350,9.0,14.0,81,-99.99,,,-99.99,,2013-04-16 22:22:00,
2013-04-16 17:33:00,33.0,28.0,-100.00,NNW,340,11.0,14.0,82,-99.99,,,-99.99,,2013-04-16 22:33:00,
2013-04-16 17:43:00,33.0,28.0,-100.00,NNW,340,11.0,14.0,82,-99.99,,,-99.99,,2013-04-16 22:43:00,
2013-04-16 17:52:00,33.0,28.0,-100.00,NNW,340,11.0,14.0,82,-99.99,,,-99.99,,2013-04-16 22:52:00,
2013-04-16 18:02:00,33.0,28.0,-100.00,North,0,7.0,12.0,80,-99.99,,,-99.99,,2013-04-16 23:02:00,
2013-04-16 18:12:00,33.0,28.0,-100.00,North,0,7.0,12.0,80,-99.99,,,-99.99,,2013-04-16 23:12:00,
2013-04-16 18:22:00,33.0,28.0,-100.00,North,0,7.0,12.0,80,-99.99,,,-99.99,,2013-04-16 23:22:00,
2013-04-16 18:32:00,33.0,28.0,-100.00,NNW,340,9.0,12.0,82,-99.99,,,-99.99,,2013-04-16 23:32:00,
2013-04-16 18:43:00,33.0,28.0,-100.00,NNW,340,9.0,12.0,82,-99.99,,,-99.99,,2013-04-16 23:43:00,
2013-04-16 18:52:00,33.0,28.0,-100.00,NNW,340,9.0,12.0,82,-99.99,,,-99.99,,2013-04-16 23:52:00,
2013-04-16 19:02:00,33.0,28.0,-100.00,NNW,340,9.0,12.0,82,-99.99,,,-99.99,,2013-04-17 00:02:00,
2013-04-16 20:02:00,32.0,29.0,-100.00,NNW,340,9.0,12.0,91,-99.99,,,-99.99,,2013-04-17 01:02:00,
2013-04-16 20:12:00,32.0,29.0,-100.00,NNW,340,9.0,12.0,91,-99.99,,,-99.99,,2013-04-17 01:12:00,
2013-04-16 20:22:00,32.0,29.0,-100.00,NNW,340,9.0,12.0,91,-99.99,,,-99.99,,2013-04-17 01:22:00,
2013-04-16 20:32:00,32.0,29.0,-100.00,NNW,340,9.0,12.0,91,-99.99,,,-99.99,,2013-04-17 01:32:00,
2013-04-16 21:02:00,31.0,29.0,-100.00,NNW,335,7.0,11.0,92,-99.99,,,-99.99,,2013-04-17 02:02:00,
2013-04-16 21:12:00,31.0,29.0,-100.00,NNW,335,7.0,11.0,92,-99.99,,,-99.99,,2013-04-17 02:12:00,
2013-04-16 21:22:00,31.0,29.0,-100.00,NNW,335,7.0,11.0,92,-99.99,,,-99.99,,2013-04-17 02:22:00,
2013-04-16 21:32:00,31.0,29.0,-100.00,NNW,330,7.0,11.0,92,-99.99,,,-99.99,,2013-04-17 02:32:00,
2013-04-16 21:42:00,31.0,29.0,-100.00,NNW,330,7.0,11.0,92,-99.99,,,-99.99,,2013-04-17 02:42:00,
2013-04-16 21:52:00,31.0,29.0,-100.00,NNW,330,7.0,11.0,92,-99.99,,,-99.99,,2013-04-17 02:52:00,
2013-04-16 22:02:00,31.0,29.0,-100.00,NNW,345,8.0,11.0,92,-99.99,,,-99.99,,2013-04-17 03:02:00,
2013-04-16 22:12:00,31.0,29.0,-100.00,NNW,345,8.0,11.0,92,-99.99,,,-99.99,,2013-04-17 03:12:00,
2013-04-16 22:22:00,31.0,29.0,-100.00,NNW,345,8.0,11.0,92,-99.99,,,-99.99,,2013-04-17 03:22:00,
2013-04-16 22:33:00,31.0,29.0,-100.00,North,-999,-999.0,-999.0,93,-99.99,,,-99.99,,2013-04-17 03:33:00,
2013-04-16 22:42:00,31.0,29.0,-100.00,North,-999,-999.0,-999.0,93,-99.99,,,-99.99,,2013-04-17 03:42:00,
2013-04-16 22:53:00,31.0,29.0,-100.00,North,-999,-999.0,-999.0,93,-99.99,,,-99.99,,2013-04-17 03:53:00,
2013-04-16 23:03:00,30.0,29.0,-100.00,North,350,9.0,14.0,94,-99.99,,,-99.99,,2013-04-17 04:03:00,
2013-04-16 23:13:00,30.0,29.0,-100.00,North,350,9.0,14.0,94,-99.99,,,-99.99,,2013-04-17 04:13:00,
2013-04-16 23:22:00,30.0,29.0,-100.00,North,350,9.0,14.0,94,-99.99,,,-99.99,,2013-04-17 04:22:00,
2013-04-16 23:33:00,30.0,29.0,-100.00,NNW,345,5.0,9.0,95,-99.99,,,-99.99,,2013-04-17 04:33:00,
2013-04-16 23:42:00,30.0,29.0,-100.00,NNW,345,5.0,9.0,95,-99.99,,,-99.99,,2013-04-17 04:42:00,
2013-04-16 23:52:00,30.0,29.0,-100.00,NNW,345,5.0,9.0,95,-99.99,,,-99.99,,2013-04-17 04:52:00,